Flag for Chile Weather past 2 weeks in Osorno, Chile

45 °F

Partly sunny.

Feels Like: 43 °F
Forecast: 39 / 54 °F
Wind: 3 mph from North

Location: Puerto Montt Airport

Current Time: Oct 6, 2015 at 2:17:06 PM

Latest Report: Oct 6, 2015 at 1:00 PM

Visibility: N/A

Pressure: 30.09 "Hg

Humidity: 81%

Dew point: 39 °F

Location of OsornoLocation

Historic Weather in Osorno — Graph


Osorno temperature yesterday

Maximum temperature yesterday: 55 °F (at 12:00 PM)
Minimum temperature yesterday: 43 °F (at 3:00 AM)
Average temperature yesterday: 47 °F

Past Weeks' High & Low Weather Summary

High70 °F (Oct 3, 4:00 PM)100% (Sep 22, 9:00 AM)30.18 "Hg (Sep 22, 9:00 AM)
Low37 °F (Oct 6, 6:00 AM)38% (Oct 3, 4:00 PM)29.68 "Hg (Oct 4, 5:00 AM)
Average50 °F82%29.97 "Hg
* Reported Sep 21 1:00 PM — Oct 6 1:00 PM, Osorno, Weather by CustomWeather, © 2015

Note: Actual official high and low records may vary slightly from our data, if they occured in-between our weather recording intervals... More about our weather records


Osorno weather history for previous 24 hours

Time TempWeatherWind HumidityBarometerVisibility
1:00 PM
Tue, Oct 6
45 °FPartly sunny.3 mph81%30.09 "HgN/A
12:00 PM46 °FBroken clouds.9 mph71%30.09 "HgN/A
11:00 AM46 °FScattered clouds.14 mph71%30.09 "HgN/A
10:00 AM43 °FSprinkles. Broken clouds.9 mph81%30.09 "Hg5 mi
9:00 AM39 °FScattered clouds.10 mph87%30.07 "HgN/A
8:00 AM37 °FBroken clouds.8 mph93%30.07 "HgN/A
7:00 AM37 °FPartly sunny.7 mph93%30.04 "HgN/A
6:00 AM37 °FPassing clouds.2 mph93%30.07 "HgN/A
5:00 AM41 °FScattered showers. Passing clouds.8 mph87%30.04 "Hg4 mi
3:00 AM39 °FPassing clouds.6 mph93%30.04 "HgN/A
2:00 AM41 °FSprinkles. Passing clouds.7 mph93%30.04 "Hg4 mi
12:00 AM43 °FPassing clouds.8 mph93%30.01 "HgN/A
11:00 PM
Mon, Oct 5
43 °FPassing clouds.9 mph93%30.01 "HgN/A
10:00 PM45 °FScattered showers. Partly cloudy.8 mph93%30.01 "Hg4 mi
9:00 PM45 °FSprinkles. Passing clouds.7 mph93%30.01 "Hg4 mi
8:00 PM46 °FSprinkles. Passing clouds.7 mph87%30.01 "Hg4 mi
7:00 PM50 °FSprinkles. Partly sunny.14 mph76%29.98 "Hg5 mi
6:00 PM52 °FPartly sunny.9 mph77%29.98 "HgN/A
5:00 PM46 °FBroken clouds.10 mph87%29.98 "HgN/A
4:00 PM52 °FPartly sunny.15 mph77%29.95 "HgN/A
3:00 PM46 °FSprinkles. Partly sunny.14 mph87%30.01 "Hg4 mi
2:00 PM55 °FPartly sunny.8 mph59%29.98 "HgN/A
Weather by CustomWeather, © 2015

See weather overviewHow to use our weather pages